Home > Weather > Jessore > Past weeks

Flag for Bangladesh Weather for the Past 2 Weeks in Jessore, Bangladesh

Now
46 °F

Passing clouds.


Feels Like: 40 °F
Forecast: 64 / 85 °F
Wind: 15 mph from Southwest

Location: Kunming Airport

Current Time: Feb 11, 2016 at 2:50:01 AM

Latest Report: Feb 11, 2016 at 2:00 AM


Visibility: N/A

Pressure: 30.01 "Hg

Humidity: 71%

Dew point: 37 °F

Location of JessoreLocation

Historic Weather in Jessore — Graph

°F

Jessore Temperature Yesterday

Maximum temperature yesterday: 61 °F (at 1:00 PM)
Minimum temperature yesterday: 43 °F (at 5:00 AM)
Average temperature yesterday: 52 °F

High & Low Weather Summary for the Past Weeks

 TemperatureHumidityPressure
High61 °F (Feb 3, 1:00 PM)100% (Jan 28, 6:00 AM)30.51 "Hg (Jan 28, 6:00 AM)
Low30 °F (Jan 29, 5:00 AM)34% (Feb 3, 3:00 PM)29.95 "Hg (Feb 3, 2:00 PM)
Average42 °F76%30.17 "Hg
* Reported Jan 27 1:00 AM — Feb 11 1:00 AM, Jessore, Weather by CustomWeather, © 2016

Note: Actual official high and low records may vary slightly from our data, if they occured in-between our weather recording intervals... More about our weather records

Advertising

Jessore Weather History for the Previous 24 Hours

 ConditionsComfort  
Time TempWeatherWind HumidityBarometerVisibility
1:00 AM
Thu, Feb 11
48 °FPassing clouds.20 mph66%30.01 "HgN/A
12:00 AM50 °FPassing clouds.17 mph62%30.01 "HgN/A
11:00 PM
Wed, Feb 10
50 °FPassing clouds.15 mph62%30.04 "HgN/A
10:00 PM50 °FClear.13 mph58%30.04 "Hg10 mi
9:00 PM52 °FClear.15 mph54%30.04 "Hg10 mi
8:00 PM52 °FPassing clouds.10 mph50%30.04 "HgN/A
7:00 PM52 °FPassing clouds.8 mph50%30.01 "HgN/A
6:00 PM54 °FPassing clouds.10 mph47%29.98 "HgN/A
5:00 PM55 °FPassing clouds.15 mph44%29.98 "HgN/A
4:00 PM57 °FScattered clouds.26 mph39%29.95 "HgN/A
3:00 PM57 °FScattered clouds.26 mph39%29.95 "HgN/A
2:00 PM61 °FScattered clouds.26 mph34%29.95 "HgN/A
1:00 PM61 °FScattered clouds.26 mph34%29.95 "HgN/A
12:00 PM59 °FPassing clouds.24 mph36%29.98 "HgN/A
11:00 AM59 °FScattered clouds.31 mph39%30.01 "HgN/A
10:00 AM57 °FPassing clouds.24 mph39%30.04 "HgN/A
9:00 AM54 °FPassing clouds.22 mph54%30.07 "HgN/A
8:00 AM50 °FPassing clouds.20 mph67%30.07 "HgN/A
7:00 AM45 °FSunny.10 mph93%30.04 "Hg10 mi
6:00 AM43 °FScattered clouds.15 mph93%30.01 "HgN/A
5:00 AM43 °FPartly cloudy.13 mph93%30.01 "HgN/A
4:00 AM45 °FPartly cloudy.13 mph87%29.98 "HgN/A
3:00 AM45 °FPartly cloudy.13 mph87%30.01 "HgN/A
2:00 AM45 °FPartly cloudy.13 mph93%30.01 "HgN/A
Weather by CustomWeather, © 2016

See weather overviewHow to use our weather pages